[[{"header":{"parameterUnit":"m.s-1","parameterCategory":1,"la1":30.2992,"la2":30.254,"lo1":-89.0895,"lo2":-89.0443,"dy":0.0025,"dx":0.0025,"nx":19,"ny":19,"refTime":"2026-03-20T03:00:00:Z","depth":0,"parameterNumber":2,"parameterNumberName":"U-component_of_WINDS"},"data":[0,0,0,0.6516,0.6519,0.6666,0.6667,0.6836,0.6837,0,0,0,0,0,0,0,0,0,0,0,0.6462,0.6463,0.6516,0.6519,0.6666,0.6667,0.6836,0.6837,0,0,0,0,0,0,0,0,0,0,0,0.6462,0.6462,0.6464,0.6519,0.6666,0.6667,0.6835,0.6731,0,0,0,0,0,0,0,0,0,0,0.6591,0.6532,0.6462,0.6464,0.652,0.6666,0.6667,0.6726,0.6737,0.6762,0,0.6781,0,0.6812,0.6848,0.6848,0,0,0,0.6527,0.6522,0.6571,0.6464,0.6522,0.6665,0.6602,0.6733,0.6745,0.6776,0.6784,0.6791,0.6815,0.6849,0.6849,0.6964,0.6964,0,0,0.6518,0.6483,0.6562,0.6579,0.6556,0.6597,0.6606,0.6741,0.6746,0.6785,0.6795,0.6817,0.685,0.6851,0.6964,0.6964,0,0,0,0.649,0.6477,0.6523,0.6571,0.6599,0.6601,0.6612,0.674,0.6758,0.6797,0.6819,0.685,0.6852,0.6964,0.6964,0.6938,0,0,0,0.6485,0.646,0.6519,0.6498,0.6597,0.6672,0.6608,0.6749,0.6765,0.6819,0.6851,0.6854,0.6964,0.6964,0.6938,0.6931,0,0,0,0.6456,0.6457,0.6475,0.6496,0.6558,0.6671,0.6697,0.6753,0.6779,0.6848,0.6854,0.6964,0.6964,0.6939,0.6932,0.6951,0,0,0,0.6414,0.645,0.6474,0.6522,0.6557,0.6653,0.6696,0.677,0.6826,0.6851,0.6964,0.6964,0.6939,0.6933,0.6951,0.6959,0.696,0,0,0.6439,0.6452,0.6483,0.6509,0.6592,0.6634,0.6713,0.6799,0.6838,0.6919,0.6923,0.6938,0.6932,0.6951,0.6975,0.6975,0,0,0,0.6479,0.6501,0.6531,0.6583,0.6649,0.6705,0.6782,0.6814,0.6885,0.6873,0.6951,0.6949,0.6961,0.6967,0.6967,0.6979,0.6965,0.6965,0.6965,0.6464,0.6512,0.6567,0.6632,0.6682,0.676,0.6805,0.686,0.6895,0.6912,0.6936,0.6945,0.6951,0.6951,0.6963,0.6945,0.6945,0.6945,0.6945,0.6506,0.6544,0.6587,0.6656,0.6706,0.6764,0.684,0.6862,0.6922,0.6931,0.6944,0.695,0.695,0.6963,0.6943,0.6944,0.6944,0.6944,0.6944,0.6501,0.6527,0.6565,0.6644,0.6699,0.6764,0.6819,0.6863,0.6904,0.6917,0.6947,0.6947,0.6953,0.6928,0.6928,0.6928,0.6928,0.6928,0.6928,0.6481,0.6524,0.6566,0.6638,0.6676,0.6732,0.681,0.6848,0.6902,0.6929,0.693,0.6961,0.6941,0.6935,0.6929,0.6929,0.6929,0.6929,0.6929,0.6504,0.6506,0.657,0.6609,0.6696,0.6747,0.6801,0.6876,0.6914,0.6939,0.6968,0.6946,0.6962,0.6962,0.6957,0.6958,0.6958,0.6958,0.6958,0.65,0.6512,0.6587,0.6645,0.6707,0.6762,0.6832,0.6892,0.6954,0.698,0.6986,0.6984,0.6982,0.6999,0.6998,0.6994,0.7005,0.7005,0.7005,0.6516,0.6536,0.6588,0.6649,0.672,0.6779,0.6846,0.691,0.6981,0.7007,0.7001,0.7,0.6995,0.6992,0.7019,0.7017,0.7011,0,0]},{"header":{"parameterUnit":"m.s-1","parameterCategory":1,"la1":30.2992,"la2":30.254,"lo1":-89.0895,"lo2":-89.0443,"dy":0.0025,"dx":0.0025,"nx":19,"ny":19,"refTime":"2026-03-20T03:00:00:Z","depth":0,"parameterNumber":3,"parameterNumberName":"V-component_of_WINDS"},"data":[0,0,0,3.908,3.908,3.904,3.9039,3.901,3.901,0,0,0,0,0,0,0,0,0,0,0,3.9107,3.9107,3.908,3.908,3.904,3.9039,3.901,3.901,0,0,0,0,0,0,0,0,0,0,0,3.9107,3.9107,3.9108,3.908,3.904,3.9039,3.901,3.9032,0,0,0,0,0,0,0,0,0,0,3.9067,3.9106,3.9107,3.9108,3.908,3.904,3.9039,3.9033,3.9031,3.9038,0,3.9049,0,3.9029,3.9009,3.9009,0,0,0,3.9069,3.9108,3.9084,3.9108,3.9079,3.904,3.9055,3.9031,3.9029,3.9035,3.9049,3.9047,3.9029,3.9009,3.9009,3.909,3.9091,0,0,3.9071,3.9107,3.9086,3.9084,3.9093,3.9056,3.9054,3.903,3.9046,3.9048,3.9046,3.9028,3.9009,3.9009,3.909,3.9091,0,0,0,3.9085,3.9109,3.9085,3.9085,3.9077,3.9055,3.9052,3.9047,3.9036,3.9045,3.9028,3.9009,3.9009,3.9089,3.909,3.9171,0,0,0,3.9086,3.9117,3.9087,3.9109,3.9078,3.9062,3.9071,3.9038,3.9034,3.9028,3.9009,3.9009,3.9087,3.9089,3.9166,3.9202,0,0,0,3.9104,3.9119,3.9119,3.9111,3.9095,3.9061,3.9049,3.9036,3.9024,3.9009,3.9009,3.9087,3.9089,3.9162,3.9196,3.9234,0,0,0,3.9135,3.9191,3.9121,3.9176,3.9096,3.9112,3.9048,3.9058,3.9055,3.9009,3.9088,3.909,3.9161,3.9192,3.923,3.9273,3.9295,0,0,3.9225,3.9203,3.9232,3.9169,3.9207,3.9115,3.9164,3.9126,3.9091,3.9092,3.9094,3.9168,3.9195,3.9233,3.9402,3.942,0,0,0,3.9273,3.9295,3.9297,3.9297,3.927,3.9249,3.92,3.9185,3.9185,3.9099,3.9191,3.9206,3.9227,3.9246,3.926,3.9276,3.91,3.91,3.91,3.9454,3.9406,3.9452,3.9399,3.9399,3.9348,3.9343,3.9315,3.9266,3.9289,3.9289,3.9397,3.9421,3.9431,3.9448,3.9307,3.9308,3.9308,3.9308,3.9582,3.9605,3.954,3.956,3.9509,3.9525,3.9478,3.9443,3.945,3.9393,3.9409,3.9352,3.9452,3.9464,3.9314,3.9313,3.9312,3.9312,3.9311,3.9695,3.9698,3.968,3.9673,3.9674,3.9618,3.9628,3.958,3.9535,3.9551,3.9546,3.9544,3.9537,3.9552,3.9552,3.9553,3.9553,3.9553,3.9554,3.9819,3.9796,3.9811,3.9787,3.978,3.9765,3.9713,3.9704,3.9682,3.9647,3.9646,3.9595,3.9471,3.9441,3.9559,3.9558,3.9558,3.9557,3.9557,3.9966,3.9925,3.9949,3.9942,3.9909,3.9912,3.9851,3.9837,3.9823,3.9829,3.9774,3.969,3.9663,3.9651,3.9626,3.9785,3.9785,3.9785,3.9785,4.0062,4.0044,4.0056,4.0048,4.0035,3.9982,4.0008,3.9968,3.992,3.9908,3.9878,3.984,3.983,3.9809,3.9793,3.9769,3.9961,3.9961,3.9961,4.0149,4.0128,4.016,4.0114,4.0084,4.006,4.0083,4.0075,4.0011,3.9967,3.9897,3.989,3.9828,3.981,3.9765,3.9742,3.9696,0,0]}]]